Location: Bremen
(53.0830°N, 8.8000°E)
Time: 17:49:22
(UTC+01:00)

Envisat - Pass Details

Date: 15 November 2025
Orbit: 761 x 762 km, 98.4° (Epoch: 05 December)

Event Time Altitude Azimuth Distance (km) Brightness Sun altitude
Rises 05:02:42 0° 7° (N) 3,239 6.4 -24.7°
Reaches altitude 10° 05:05:33 10° 351° (N) 2,308 5.4 -24.3°
Enters shadow 05:06:02 12° 347° (NNW) 2,177 5.2 -24.2°
